Regional Weather Roundup
Issued by NWS

Home | Current Version | Previous Version | Graphics & Text | Print | Product List | Glossary On
Versions: 1 2 3 4 5 6 7 8 9 10 11 12 13 14 15 16 17 18 19 20 21 22 23 24 25 26 27 28 29 30 31 32 33 34 35 36 37 38 39 40 41 42 43 44 45 46 47 48 49 50
000
ASUS43 KLSX 262310
RWRMO

WEATHER SUMMARY FOR MISSOURI
NATIONAL WEATHER SERVICE SPRINGFIELD MO
600 PM CDT WED APR 26 2017

NOTE: "FAIR" INDICATES FEW OR NO CLOUDS BELOW 12,000 FEET WITH NO
       SIGNIFICANT WEATHER AND/OR OBSTRUCTIONS TO VISIBILITY.
       CURRENT SKY AND/OR WEATHER CONDITIONS ARE NOT AVAILABLE FOR
       CHILLICOTHE AND FARMINGTON.

MOZ001>031-035>038-043-044-053-054-270000-
...NORTHERN AND WESTERN MISSOURI...

CITY           SKY/WX    TMP DP  RH WIND       PRES   REMARKS
KANSAS CTY INT CLOUDY    49  38  65 NW13      29.59R
KANSAS C DTWN  CLOUDY    51  39  63 NW12G21   29.58F
LEE`S SUMMIT   CLOUDY    47  41  80 NW9       29.58S
ST JOSEPH      CLOUDY    49  37  63 NW17      29.61F
CHILLICOTHE      N/A     48  44  86 VRB5      29.57F
KIRKSVILLE     LGT RAIN  47  45  93 N8        29.54F FOG

$$
MOZ066>068-077>081-088>096-101>105-270000-
...SOUTHWEST MISSOURI...

CITY           SKY/WX    TMP DP  RH WIND       PRES   REMARKS
SPRINGFIELD    CLOUDY    46  44  93 NW13G18   29.55R FOG
JOPLIN         LGT RAIN  47  46  97 N12       29.62R FOG
BRANSON        LGT RAIN  48  48 100 NW8       29.55R FOG

$$
MOZ032>034-039>042-045>050-055>058-069>072-270000-
...CENTRAL MISSOURI...

CITY           SKY/WX    TMP DP  RH WIND       PRES   REMARKS
COLUMBIA       LGT RAIN  48  47  96 NW14      29.51F FOG
JEFFERSON CITY LGT RAIN  51  48  89 NW9       29.51R FOG
ROLLA          LGT RAIN  49  49 100 N9        29.45F FOG
SEDALIA        LGT RAIN  47  46  97 NW14      29.57R
WHITEMAN AFB   DRIZZLE   45  45 100 NW10      29.55R FOG
OSAGE BEACH    LGT RAIN  47  46  97 VRB3      29.53F

$$
MOZ051-052-059>065-270000-
...EAST CENTRAL MISSOURI...

CITY           SKY/WX    TMP DP  RH WIND       PRES   REMARKS
ST LOUIS INTL  LGT RAIN  64  60  87 SE8       29.48R
SPIRIT OF STL  RAIN      61  61 100 W3        29.47R FOG
ST CHARLES     LGT RAIN  62  61  96 CALM      29.46R

$$
MOZ072>076-082>087-097>100-106>115-270000-
...SOUTH CENTRAL AND SOUTHEAST MISSOURI...

CITY           SKY/WX    TMP DP  RH WIND       PRES   REMARKS
CAPE GIRARDEAU RAIN      60  58  92 NW5       29.50F FOG
FARMINGTON     RAIN      59  58  96 SE6       29.50S
POPLAR BLUFF   LGT RAIN  59  59 100 NE8       29.46F
WEST PLAINS    TSTM      57  56  96 SE9       29.47F

$$




USA.gov is the U.S. government's official web portal to all federal, state and local government web resources and services.